DW8316 Weather Reports


Display with metric or nautical units.
time (UTC)temp
F
wind
direction
speed
MPH
gust
MPH
rain 1hr
in
rain 24hr
in
rain mn
in
humidity
%
barometer
mb
20190625154608 47 137 1.0 4.0 0.00 0.00 0.00 85 1033.5
20190625153108 47 141 1.0 3.0 0.00 0.00 0.00 84 1033.4
20190625151627 48 260 1.0 3.0 0.00 0.00 0.00 84 1033.4
20190625150131 47 245 1.0 3.0 0.00 0.00 0.00 85 1033.3
20190625144637 47 239 1.0 4.0 0.00 0.00 0.00 85 1033.3
20190625143102 47 245 2.0 4.0 0.00 0.00 0.00 85 1033.3
20190625141556 48 282 1.0 2.0 0.00 0.00 0.00 83 1033.3
20190625140145 48 282 1.0 2.0 0.00 0.00 0.00 83 1033.4
20190625134549 48 282 1.0 5.0 0.00 0.00 0.00 82 1033.4
20190625133126 48 304 1.0 3.0 0.00 0.00 0.00 81 1033.3
20190625131617 48 304 1.0 3.0 0.00 0.00 0.00 79 1033.3
20190625130129 48 312 1.0 3.0 0.00 0.00 0.00 79 1033.5
20190625124626 48 312 1.0 2.0 0.00 0.00 0.00 78 1033.3
20190625123206 47 312 1.0 3.0 0.00 0.00 0.00 77 1033.3
20190625121550 48 338 0.0 2.0 0.00 0.00 0.00 76 1033.2
20190625120047 49 22 0.0 2.0 0.00 0.00 0.00 75 1033.1
20190625114538 50 22 1.0 2.0 0.00 0.00 0.00 75 1033.1
20190625113044 50 81 0.0 2.0 0.00 0.00 0.00 75 1033.1
20190625111529 50 115 0.0 0.0 0.00 0.00 0.00 74 1033.2
20190625110038 50 115 0.0 0.0 0.00 0.00 0.00 74 1033.3
20190625104535 50 115 0.0 0.0 0.00 0.00 0.00 74 1033.2
20190625103200 50 115 0.0 0.0 0.00 0.00 0.00 74 1033.2
20190625101539 50 115 0.0 0.0 0.00 0.00 0.00 72 1033.2
20190625100028 51 115 0.0 0.0 0.00 0.00 0.00 72 1033.2
20190625094535 51 115 0.0 2.0 0.00 0.00 0.00 69 1033.2
20190625093042 52 115 0.0 0.0 0.00 0.00 0.00 67 1033.2
20190625091553 52 115 0.0 0.0 0.00 0.00 0.00 66 1033.2
20190625090022 52 115 0.0 0.0 0.00 0.00 0.00 65 1033.2
20190625084543 52 115 0.0 0.0 0.00 0.00 0.00 64 1033.1
20190625083031 52 115 0.0 0.0 0.00 0.00 0.00 64 1033.1
20190625081619 53 115 0.0 0.0 0.00 0.00 0.00 65 1032.8
20190625080054 53 115 0.0 1.0 0.00 0.00 0.00 65 1032.8
20190625074527 53 115 0.0 0.0 0.00 0.00 0.00 65 1032.7
20190625073019 53 115 0.0 2.0 0.00 0.00 0.00 65 1032.6
20190625071526 54 130 1.0 3.0 0.00 0.00 0.00 64 1032.6
20190625070036 54 162 2.0 4.0 0.00 0.00 0.00 63 1032.6
20190625064521 55 144 1.0 3.0 0.00 0.00 0.00 61 1032.5
20190625063030 56 106 0.0 3.0 0.00 0.00 0.00 58 1032.4
20190625061521 56 63 1.0 4.0 0.00 0.00 0.00 58 1032.3
20190625060041 56 70 1.0 4.0 0.00 0.01 0.00 57 1032.4
20190625054536 56 58 1.0 4.0 0.00 0.01 0.00 55 1032.3
20190625053019 55 124 1.0 4.0 0.00 0.01 0.00 53 1032.3
20190625051538 56 97 1.0 3.0 0.00 0.01 0.00 53 1032.2
20190625050046 56 52 2.0 5.0 0.00 0.01 0.00 51 1031.9
20190625044518 55 52 2.0 5.0 0.00 0.01 0.00 51 1032.0
20190625043016 55 43 2.0 5.0 0.00 0.01 0.00 49 1032.1
20190625041511 55 76 1.0 5.0 0.00 0.01 0.00 50 1032.3
20190625040014 55 70 3.0 5.0 0.00 0.01 0.00 51 1032.4
20190625034521 55 53 3.0 6.0 0.00 0.01 0.00 49 1032.3
20190625033008 55 88 3.0 6.0 0.00 0.01 0.00 46 1032.4
20190625031512 54 104 3.0 5.0 0.00 0.01 0.00 54 1032.6
20190625030004 54 87 3.0 4.0 0.00 0.01 0.00 64 1032.9
20190625024504 54 80 0.0 3.0 0.00 0.01 0.00 65 1033.0
20190625023002 55 62 1.0 5.0 0.00 0.01 0.00 65 1032.9
20190625021832 54 77 3.0 6.0 0.00 0.01 0.00 67 1033.0
20190625020223 54 47 1.0 4.0 0.00 0.01 0.00 71 1033.3
20190625014732 54 43 2.0 4.0 0.00 0.01 0.00 73 1033.6
20190625013135 54 68 2.0 4.0 0.00 0.01 0.00 73 1033.8
20190625011713 53 45 1.0 3.0 0.00 0.01 0.00 75 1034.0
20190625010105 52 34 1.0 3.0 0.00 0.01 0.00 77 1034.1
20190625004554 50 350 0.0 0.0 0.00 0.01 0.00 78 1034.3
20190625003118 49 350 0.0 3.0 0.00 0.01 0.00 80 1034.3
20190625001615 47 259 1.0 2.0 0.00 0.01 0.00 79 1034.2
20190625000133 46 259 0.0 2.0 0.00 0.01 0.00 79 1034.1
20190624234601 45 259 1.0 2.0 0.00 0.01 0.00 77 1034.0
20190624233131 45 259 1.0 3.0 0.00 0.01 0.00 75 1033.9
20190624231540 45 64 0.0 3.0 0.00 0.01 0.00 73 1033.8
20190624230057 44 185 1.0 4.0 0.00 0.01 0.00 72 1033.5
20190624224606 44 281 0.0 0.0 0.00 0.01 0.00 72 1033.5
20190624223051 43 225 0.0 2.0 0.00 0.01 0.00 72 1033.4
20190624221538 43 225 0.0 2.0 0.00 0.01 0.00 73 1033.5
20190624220018 43 209 0.0 2.0 0.00 0.01 0.00 73 1033.2
20190624214556 43 209 1.0 3.0 0.00 0.01 0.00 75 1033.1
20190624213026 43 92 0.0 0.0 0.00 0.01 0.00 75 1033.0
20190624211530 43 92 0.0 1.0 0.00 0.01 0.00 75 1032.8
20190624210033 43 92 0.0 2.0 0.00 0.02 0.00 74 1032.8
20190624204513 43 93 1.0 4.0 0.00 0.02 0.00 76 1032.7
20190624203021 42 80 0.0 2.0 0.00 0.02 0.00 79 1032.6
20190624201507 42 80 0.0 1.0 0.00 0.02 0.00 79 1032.5
20190624200005 42 80 0.0 2.0 0.00 0.02 0.00 80 1032.4
20190624194500 41 89 2.0 4.0 0.00 0.02 0.00 85 1032.1
20190624193204 41 58 1.0 3.0 0.00 0.02 0.00 87 1032.0
20190624191837 41 45 0.0 1.0 0.00 0.02 0.00 87 1032.0
20190624190144 41 45 0.0 2.0 0.00 0.02 0.00 87 1032.0
20190624184626 41 45 0.0 2.0 0.00 0.02 0.00 87 1031.8
20190624183223 42 41 0.0 3.0 0.00 0.02 0.00 87 1031.9
20190624181822 42 68 3.0 6.0 0.00 0.02 0.00 88 1031.7
20190624180106 42 77 1.0 4.0 0.00 0.02 0.00 87 1031.6
20190624174626 43 44 1.0 4.0 0.00 0.02 0.00 83 1031.7
20190624173107 44 47 1.0 4.0 0.00 0.02 0.00 81 1031.7
20190624171619 44 122 2.0 5.0 0.00 0.02 0.00 85 1031.8
20190624170127 44 49 1.0 4.0 0.00 0.02 0.00 87 1031.8
20190624164710 44 35 0.0 3.0 0.00 0.02 0.00 86 1032.0
20190624163138 44 62 0.0 2.0 0.00 0.02 0.00 86 1032.0
20190624161557 44 62 0.0 3.0 0.00 0.02 0.00 86 1031.9
20190624160110 45 62 0.0 1.0 0.00 0.03 0.00 86 1032.1